星链-5409 (STARLINK-5409 )

导读 | 豆包AI

STARLINK-5409是美国太空探索技术公司(SpaceX)星链(Starlink)星座的成员,于2022年12月28日发射入轨,属于星链互联网卫星组网批次,其核心使命是为全球范围内用户提供低延迟、高速率的卫星宽带互联网服务,填补地面网络覆盖盲区,支撑偏远地区通信、移动互联等应用场景,是Starlink大规模低轨星座建设中的重要组成部分。

Basic Information
目录编号:
54859
目录名称:
STARLINK-5409
国际标识:
2022-177AR
轨道中心:
EARTH
卫星名称:
星链-5409
卫星全名:
星链-5409 (STARLINK-5409 )
卫星状态:
在轨 (已飞行1219 天)
发射日期:
2022-12-28 UTC
国别 :
美国 (US)
星等 :
--
Orbit Information
数据来源 国际轨道数据 AOE轨道数据
星历时间 2026-04-30T05:57:28+0800
17小时前
查看轨道信息
2026-04-28T08:00:00+0800
2天前
查看轨道信息
半长轴 6863.677km 6863.681km
偏心率 0.0001456 0.0001534
轨道倾角 43.005° 43.007°
近地点辐角 267.777° 288.149°
升交点赤经 192.388° 203.191°
平近点角 92.292° 334.703°
近地点 484.54km 484.491km
远地点 486.54km 486.597km
周期 94.318分钟 94.318分钟
每日圈数 15.267488 15.267473
Detailed Information
固有亮度:
5
最大亮度:
2.5
卫星平台:
Starlink v1.5
覆盖范围:
全球
运营商:
太空探索技术公司
运营商所在国:
美国
制造商(研发单位):
太空探索技术公司
制造商所在国:
美国
使用方式:
暂无
Satellite Introduction
星链(Starlink)计划是由太空探索技术公司(SpaceX)提出的一个巨型低轨卫星互联网星座项目,计划在2019年至2024年间在太空搭建由约1.2万颗卫星组成的“星链”网络,其中1584颗将部署在地球上空550千米处的近地轨道,并从2020年开始工作。该卫星仍在工作。
2D Orbit Map
3D Orbit Map
Orbit Altitude Analysis Chart
Orbit Inclination Analysis Chart
Orbit Comprehensive Analysis Chart
View Comprehensive Chart